CARCARA 2 (ICEYE-X19) (52758 NORAD) Tracking and Keplerian Element Data

This shows tracking and keplerian element data for the satellite.

Feedback or suggestion? Click here.




ElementValue
Catalog52758
NameCARCARA 2 (ICEYE-X19)
Epoch Orbit15028
Epoch Day34.91790437
Epoch Year2025
RAAN176.1908
Inclination97.5595
Eccentricity0.0012318
Argument of Perigee307.353
Mean Anonmoly52.6614
Mean Motion15.79389076
Decay Rate0.00331979
L11 52758U 22057AC 25034.91790437 .00331979 00000+0 17728-2 0 9995
L22 52758 97.5595 176.1908 0012318 307.3530 52.6614 15.79389076150282



Live tracking and technical data element details for CARCARA 2 (ICEYE-X19) (NORAD 52758). CARCARA 2 (ICEYE-X19) can be tracked NOW for your location showing map with azimuth and elevation plus other details from your city location.







IsCatalogInMostPopularTable: catalog: 52758, numindb: 66
Update: records affected: 1



GetName: 52758 CARCARA 2 (ICEYE-X19)

Hit Count: updated at: Wed, 18 Jun 2025 04:57:11 GMT